Time,TemperatureF,DewpointF,PressureIn,WindDirection,WindDirectionDegrees,WindSpeedMPH,WindSpeedGustMPH,Humidity,HourlyPrecipIn,Conditions,Clouds,dailyrainin,SoftwareType,DateUTC
2014-03-11 02:22:00,62.0,33.0,-100.00,North,1,0.0,1.0,34,0.00,,,0.00,,2014-03-11 06:22:00,
2014-03-11 02:42:00,58.0,34.0,-100.00,West,271,1.0,2.0,41,0.00,,,0.00,,2014-03-11 06:42:00,
2014-03-11 03:12:00,56.0,32.0,-100.00,NW,320,1.0,2.0,41,0.00,,,0.00,,2014-03-11 07:12:00,
2014-03-11 03:22:00,56.0,32.0,-100.00,NW,320,1.0,2.0,41,0.00,,,0.00,,2014-03-11 07:22:00,
2014-03-11 03:42:00,54.0,35.0,-100.00,NNW,333,1.0,2.0,48,0.00,,,0.00,,2014-03-11 07:42:00,
2014-03-11 03:53:00,62.0,33.0,-100.00,NW,320,1.0,3.0,34,0.00,,,0.00,,2014-03-11 07:53:00,
2014-03-11 04:02:00,62.0,33.0,-100.00,NW,320,1.0,3.0,34,0.00,,,0.00,,2014-03-11 08:02:00,
2014-03-11 05:12:00,56.0,35.0,-100.00,WSW,257,2.0,3.0,43,0.00,,,0.00,,2014-03-11 09:12:00,
2014-03-11 05:22:00,56.0,35.0,-100.00,WSW,257,2.0,3.0,43,0.00,,,0.00,,2014-03-11 09:22:00,
2014-03-11 05:43:00,54.0,33.0,-100.00,West,263,1.0,2.0,44,0.00,,,0.00,,2014-03-11 09:43:00,
2014-03-11 05:54:00,54.0,33.0,-100.00,West,265,0.0,1.0,46,0.00,,,0.00,,2014-03-11 09:54:00,
2014-03-11 06:03:00,54.0,33.0,-100.00,West,265,0.0,1.0,46,0.00,,,0.00,,2014-03-11 10:03:00,
2014-03-11 06:20:00,53.0,33.0,-100.00,West,264,0.0,0.0,47,0.00,,,0.00,,2014-03-11 10:20:00,
2014-03-11 06:23:00,55.0,34.0,-100.00,West,260,2.0,2.0,45,0.00,,,0.00,,2014-03-11 10:23:00,
2014-03-11 06:53:00,53.0,33.0,-100.00,West,264,0.0,0.0,47,0.00,,,0.00,,2014-03-11 10:53:00,
2014-03-11 07:03:00,53.0,33.0,-100.00,West,264,0.0,0.0,47,0.00,,,0.00,,2014-03-11 11:03:00,
2014-03-11 07:12:00,53.0,33.0,-100.00,West,264,0.0,0.0,47,0.00,,,0.00,,2014-03-11 11:12:00,
2014-03-11 07:40:00,46.0,33.0,-100.00,West,261,0.0,1.0,58,0.00,,,0.00,,2014-03-11 11:40:00,
2014-03-11 07:42:00,49.0,33.0,-100.00,WNW,284,0.0,0.0,54,0.00,,,0.00,,2014-03-11 11:42:00,
2014-03-11 07:52:00,49.0,33.0,-100.00,South,178,0.0,0.0,55,0.00,,,0.00,,2014-03-11 11:52:00,
2014-03-11 08:02:00,49.0,33.0,-100.00,South,178,0.0,0.0,55,0.00,,,0.00,,2014-03-11 12:02:00,
2014-03-11 08:22:00,46.0,33.0,-100.00,West,261,0.0,1.0,58,0.00,,,0.00,,2014-03-11 12:22:00,
2014-03-11 08:32:00,46.0,33.0,-100.00,West,261,0.0,1.0,58,0.00,,,0.00,,2014-03-11 12:32:00,
2014-03-11 08:53:00,47.0,33.0,-100.00,West,278,0.0,0.0,59,0.00,,,0.00,,2014-03-11 12:53:00,
2014-03-11 09:22:00,49.0,34.0,-100.00,West,278,0.0,0.0,56,0.00,,,0.00,,2014-03-11 13:22:00,
2014-03-11 09:32:00,49.0,34.0,-100.00,West,278,0.0,0.0,56,0.00,,,0.00,,2014-03-11 13:32:00,
2014-03-11 12:24:00,74.0,39.0,-100.00,NE,38,8.0,10.0,28,0.00,,,0.00,,2014-03-11 16:24:00,
2014-03-11 12:33:00,74.0,39.0,-100.00,NE,38,8.0,10.0,28,0.00,,,0.00,,2014-03-11 16:33:00,
2014-03-11 12:43:00,74.0,39.0,-100.00,NE,38,8.0,10.0,28,0.00,,,0.00,,2014-03-11 16:43:00,
2014-03-11 20:22:00,75.0,38.0,-100.00,WSW,244,0.0,1.0,26,0.00,,,0.00,,2014-03-12 00:22:00,
2014-03-11 20:52:00,70.0,39.0,-100.00,West,272,0.0,1.0,32,0.00,,,0.00,,2014-03-12 00:52:00,
2014-03-11 21:02:00,70.0,39.0,-100.00,West,272,0.0,1.0,32,0.00,,,0.00,,2014-03-12 01:02:00,
2014-03-11 21:22:00,66.0,40.0,-100.00,WSW,243,0.0,0.0,38,0.00,,,0.00,,2014-03-12 01:22:00,
2014-03-11 21:42:00,64.0,40.0,-100.00,SSW,198,0.0,1.0,41,0.00,,,0.00,,2014-03-12 01:42:00,
2014-03-11 21:53:00,64.0,40.0,-100.00,WSW,250,0.0,1.0,41,0.00,,,0.00,,2014-03-12 01:53:00,
2014-03-11 22:12:00,62.0,39.0,-100.00,WSW,243,1.0,3.0,42,0.00,,,0.00,,2014-03-12 02:12:00,
2014-03-11 22:22:00,62.0,41.0,-100.00,West,264,0.0,1.0,47,0.00,,,0.00,,2014-03-12 02:22:00,
2014-03-11 22:33:00,62.0,41.0,-100.00,West,264,0.0,1.0,47,0.00,,,0.00,,2014-03-12 02:33:00,
2014-03-11 22:42:00,62.0,41.0,-100.00,West,264,0.0,1.0,47,0.00,,,0.00,,2014-03-12 02:42:00,
2014-03-11 22:53:00,61.0,38.0,-100.00,South,181,0.0,1.0,42,0.00,,,0.00,,2014-03-12 02:53:00,
2014-03-11 23:12:00,60.0,39.0,-100.00,SW,230,0.0,1.0,47,0.00,,,0.00,,2014-03-12 03:12:00,
2014-03-11 23:22:00,60.0,39.0,-100.00,SW,234,0.0,1.0,46,0.00,,,0.00,,2014-03-12 03:22:00,
2014-03-11 23:33:00,60.0,39.0,-100.00,SW,234,0.0,1.0,46,0.00,,,0.00,,2014-03-12 03:33:00,
2014-03-11 23:42:00,60.0,39.0,-100.00,SW,234,0.0,1.0,46,0.00,,,0.00,,2014-03-12 03:42:00,
2014-03-11 23:53:00,59.0,39.0,-100.00,WSW,257,2.0,3.0,48,0.00,,,0.00,,2014-03-12 03:53:00,